Find Starlink 34312

NORAD ID: 64711 Int'l Des: 2025-142 Owner: SPXS Country: US Constellation: starlink operational
LEOCIRCULAR

現在のビュー

3D地球を読み込み中...

About Starlink 34312

Starlink 34312 (NORAD 64711) is a starlink constellation satellite (v2 mini) launched Jun 28, 2025 by SPXS of US. It operates in LEO, CIRCULAR orbit with a mass of 575.00 kg.

次回通過

Passes for default location (London). Set your location on the main map for personalized predictions.

高度履歴

Loading altitude history...

軌道要素

1 64711U 25142R 26263.17698480 .00009877 00000-0 34745-3 0 9992
2 64711 70.0012 181.6672 0003488 266.4753 93.6023 15.29591762 68844
Epoch: Sep 20, 2026 • Age: 27 hours

現在のステータス

高度 490.1 km
遠地点 / 近地点 N/A
速度 7.63 km/s
衛星直下点 66.41°N, 168.17°W
打ち上げ日 Jun 28, 2025
運用期間 1.2 years
タイプ internet

技術仕様

分類 Payload
質量 575.00 kg
乾燥質量 530.00 kg
長さ 0.30 m
スパン 29.00 m
形状 ? Box + pan
製造者 SPXS
バスタイプ Starlink V2MO
フェーズステータス In Orbit
所有者/国 SPXS/US

Most Searched